EN

Hourly Weather Homyaki

Today, 21 October, Wednesday

Time Temperature Precipitation Wind Pressure Humidity
00:00 +1°C° 0 mm 2 mps 752 mmHg 83%
01:00 +1°C° 0 mm 2 mps 752 mmHg 85%
02:00 +1°C° 0 mm 2 mps 752 mmHg 85%
03:00 +2°C° 0 mm 2 mps 752 mmHg 85%
04:00 +2°C° 0 mm 2 mps 751 mmHg 85%
05:00 +2°C° 0 mm 2 mps 751 mmHg 86%
06:00 +2°C° 0 mm 3 mps 751 mmHg 85%
07:00 +2°C° 0 mm 3 mps 750 mmHg 84%
08:00 +2°C° 0 mm 3 mps 750 mmHg 83%
09:00 +2°C° 0.6 mm 3 mps 750 mmHg 86%
10:00 +3°C° 0.6 mm 4 mps 749 mmHg 89%
11:00 +3°C° 0.6 mm 4 mps 749 mmHg 91%
12:00 +3°C° 0.6 mm 4 mps 749 mmHg 92%
13:00 +3°C° 0.6 mm 3 mps 748 mmHg 92%
14:00 +4°C° 0.6 mm 3 mps 748 mmHg 93%
15:00 +4°C° 0.1 mm 3 mps 747 mmHg 93%
16:00 +4°C° 0.1 mm 3 mps 747 mmHg 94%
17:00 +5°C° 0.1 mm 2 mps 747 mmHg 95%
18:00 +5°C° 0 mm 2 mps 747 mmHg 95%
19:00 +5°C° 0 mm 2 mps 747 mmHg 96%
20:00 +5°C° 0 mm 2 mps 747 mmHg 96%
21:00 +5°C° 0 mm 2 mps 747 mmHg 96%
22:00 +5°C° 0 mm 2 mps 747 mmHg 97%
23:00 +5°C° 0 mm 2 mps 747 mmHg 97%

Tomorrow, 22 October, Thursday

Time Temperature Precipitation Wind Pressure Humidity
00:00 +5°C° 0 mm 2 mps 747 mmHg 97%
01:00 +5°C° 0 mm 2 mps 747 mmHg 97%
02:00 +5°C° 0 mm 2 mps 747 mmHg 97%
03:00 +5°C° 0 mm 2 mps 747 mmHg 96%
04:00 +4°C° 0 mm 3 mps 746 mmHg 95%
05:00 +4°C° 0 mm 3 mps 746 mmHg 94%
06:00 +4°C° 0.3 mm 3 mps 745 mmHg 93%
07:00 +4°C° 0.3 mm 4 mps 745 mmHg 93%
08:00 +4°C° 0.3 mm 4 mps 745 mmHg 93%
09:00 +5°C° 0.7 mm 4 mps 744 mmHg 93%
10:00 +5°C° 0.7 mm 4 mps 744 mmHg 94%
11:00 +6°C° 0.7 mm 4 mps 743 mmHg 94%
12:00 +6°C° 0.1 mm 5 mps 743 mmHg 92%
13:00 +7°C° 0.1 mm 5 mps 742 mmHg 90%
14:00 +8°C° 0.1 mm 5 mps 742 mmHg 88%
15:00 +8°C° 0 mm 5 mps 742 mmHg 88%
16:00 +8°C° 0 mm 4 mps 741 mmHg 88%
17:00 +8°C° 0 mm 4 mps 741 mmHg 89%
18:00 +9°C° 0 mm 5 mps 741 mmHg 88%
19:00 +10°C° 0 mm 5 mps 740 mmHg 86%
20:00 +10°C° 0 mm 6 mps 740 mmHg 85%
21:00 +11°C° 0 mm 6 mps 740 mmHg 85%
22:00 +11°C° 0 mm 6 mps 740 mmHg 85%
23:00 +11°C° 0 mm 6 mps 741 mmHg 84%

Day after tomorrow, 23 October, Friday

Time Temperature Precipitation Wind Pressure Humidity
00:00 +11°C° 0 mm 6 mps 741 mmHg 85%
01:00 +11°C° 0 mm 6 mps 741 mmHg 85%
02:00 +10°C° 0 mm 5 mps 742 mmHg 85%
03:00 +10°C° 0 mm 5 mps 742 mmHg 87%
04:00 +9°C° 0 mm 5 mps 742 mmHg 89%
05:00 +9°C° 0 mm 5 mps 742 mmHg 91%
06:00 +9°C° 0 mm 5 mps 742 mmHg 91%
07:00 +9°C° 0 mm 5 mps 742 mmHg 91%
08:00 +9°C° 0 mm 5 mps 742 mmHg 91%
09:00 +11°C° 0 mm 4 mps 742 mmHg 89%
10:00 +11°C° 0 mm 4 mps 741 mmHg 86%
11:00 +12°C° 0 mm 4 mps 741 mmHg 84%
12:00 +12°C° 0.7 mm 4 mps 741 mmHg 86%
13:00 +12°C° 0.7 mm 4 mps 740 mmHg 89%
14:00 +12°C° 0.7 mm 4 mps 740 mmHg 91%
15:00 +12°C° 1.9 mm 4 mps 739 mmHg 91%
16:00 +12°C° 1.9 mm 4 mps 739 mmHg 91%
17:00 +12°C° 1.9 mm 5 mps 739 mmHg 91%
18:00 +10°C° 0.3 mm 5 mps 739 mmHg 91%
19:00 +10°C° 0.3 mm 5 mps 739 mmHg 90%
20:00 +10°C° 0.3 mm 5 mps 739 mmHg 90%
21:00 +10°C° 0.1 mm 5 mps 739 mmHg 90%
22:00 +10°C° 0.1 mm 4 mps 740 mmHg 91%
23:00 +8°C° 0.1 mm 4 mps 740 mmHg 92%

24 October, Saturday

Time Temperature Precipitation Wind Pressure Humidity
00:00 +8°C° 0 mm 4 mps 740 mmHg 92%
01:00 +8°C° 0 mm 4 mps 740 mmHg 93%
02:00 +7°C° 0 mm 4 mps 740 mmHg 93%
03:00 +7°C° 0 mm 4 mps 740 mmHg 92%
04:00 +7°C° 0 mm 4 mps 741 mmHg 91%
05:00 +8°C° 0 mm 3 mps 741 mmHg 90%
06:00 +8°C° 0 mm 3 mps 741 mmHg 91%
07:00 +8°C° 0 mm 3 mps 741 mmHg 92%
08:00 +7°C° 0 mm 3 mps 741 mmHg 93%
09:00 +8°C° 0 mm 3 mps 742 mmHg 90%
10:00 +8°C° 0 mm 3 mps 742 mmHg 88%
11:00 +8°C° 0 mm 3 mps 742 mmHg 86%
12:00 +9°C° 0 mm 3 mps 742 mmHg 83%
13:00 +9°C° 0 mm 3 mps 742 mmHg 80%
14:00 +9°C° 0 mm 3 mps 742 mmHg 77%
15:00 +9°C° 0 mm 2 mps 742 mmHg 80%
16:00 +9°C° 0 mm 2 mps 742 mmHg 82%
17:00 +8°C° 0 mm 2 mps 742 mmHg 85%
18:00 +9°C° 0 mm 1 mps 742 mmHg 86%
19:00 +9°C° 0 mm 1 mps 742 mmHg 88%
20:00 +8°C° 0 mm 1 mps 742 mmHg 90%
21:00 +8°C° 0 mm 1 mps 742 mmHg 90%
22:00 +8°C° 0 mm 1 mps 742 mmHg 91%
23:00 +7°C° 0 mm 1 mps 742 mmHg 92%

25 October, Sunday

Time Temperature Precipitation Wind Pressure Humidity
00:00 +8°C° 0 mm 1 mps 742 mmHg 92%
01:00 +8°C° 0 mm 1 mps 742 mmHg 92%
02:00 +8°C° 0 mm 1 mps 742 mmHg 92%
03:00 +8°C° 0 mm 1 mps 742 mmHg 93%
04:00 +8°C° 0 mm 1 mps 743 mmHg 93%
05:00 +8°C° 0 mm 1 mps 743 mmHg 93%
06:00 +8°C° 0 mm 1 mps 744 mmHg 93%
07:00 +8°C° 0 mm 2 mps 744 mmHg 93%
08:00 +8°C° 0 mm 2 mps 744 mmHg 93%
09:00 +8°C° 0 mm 3 mps 745 mmHg 90%
10:00 +9°C° 0 mm 3 mps 746 mmHg 87%
11:00 +9°C° 0 mm 3 mps 746 mmHg 84%
12:00 +9°C° 0 mm 3 mps 746 mmHg 83%
13:00 +10°C° 0 mm 3 mps 747 mmHg 82%
14:00 +10°C° 0 mm 3 mps 747 mmHg 81%
15:00 +9°C° 0 mm 2 mps 748 mmHg 82%
16:00 +9°C° 0 mm 2 mps 748 mmHg 82%
17:00 +9°C° 0 mm 2 mps 748 mmHg 83%
18:00 +9°C° 0 mm 1 mps 749 mmHg 84%
19:00 +9°C° 0 mm 1 mps 749 mmHg 85%
20:00 +9°C° 0 mm 1 mps 749 mmHg 85%
21:00 +9°C° 0 mm 1 mps 750 mmHg 86%
22:00 +8°C° 0 mm 1 mps 750 mmHg 87%
23:00 +8°C° 0 mm 1 mps 750 mmHg 89%

26 October, Monday

Time Temperature Precipitation Wind Pressure Humidity
00:00 +7°C° 0 mm 1 mps 750 mmHg 90%
01:00 +7°C° 0 mm 1 mps 751 mmHg 92%
02:00 +6°C° 0 mm 1 mps 751 mmHg 94%
03:00 +5°C° 0 mm 2 mps 751 mmHg 95%
04:00 +5°C° 0 mm 2 mps 751 mmHg 95%
05:00 +5°C° 0 mm 2 mps 751 mmHg 96%
06:00 +5°C° 0 mm 2 mps 751 mmHg 96%
07:00 +5°C° 0 mm 2 mps 752 mmHg 95%
08:00 +5°C° 0 mm 2 mps 752 mmHg 95%
09:00 +5°C° 0 mm 3 mps 752 mmHg 90%
10:00 +8°C° 0 mm 3 mps 752 mmHg 86%
11:00 +9°C° 0 mm 3 mps 752 mmHg 81%
12:00 +9°C° 0 mm 3 mps 752 mmHg 79%
13:00 +10°C° 0 mm 3 mps 752 mmHg 77%
14:00 +10°C° 0 mm 3 mps 752 mmHg 76%
15:00 +9°C° 0 mm 3 mps 752 mmHg 81%
16:00 +8°C° 0 mm 2 mps 752 mmHg 86%
17:00 +7°C° 0 mm 2 mps 752 mmHg 91%
18:00 +7°C° 0 mm 2 mps 752 mmHg 92%
19:00 +6°C° 0 mm 2 mps 752 mmHg 92%
20:00 +6°C° 0 mm 2 mps 752 mmHg 93%
21:00 +5°C° 0 mm 3 mps 752 mmHg 93%
22:00 +5°C° 0 mm 3 mps 752 mmHg 93%
23:00 +4°C° 0 mm 3 mps 752 mmHg 93%

27 October, Tuesday

Time Temperature Precipitation Wind Pressure Humidity
00:00 +4°C° 0 mm 3 mps 752 mmHg 94%
01:00 +4°C° 0 mm 3 mps 752 mmHg 94%
02:00 +4°C° 0 mm 3 mps 752 mmHg 95%
03:00 +4°C° 0 mm 3 mps 752 mmHg 95%
04:00 +4°C° 0 mm 3 mps 752 mmHg 95%
05:00 +4°C° 0 mm 3 mps 752 mmHg 95%
06:00 +4°C° 0 mm 3 mps 752 mmHg 93%
07:00 +4°C° 0 mm 3 mps 752 mmHg 91%
08:00 +4°C° 0 mm 3 mps 753 mmHg 90%
09:00 +5°C° 0 mm 3 mps 753 mmHg 84%
10:00 +7°C° 0 mm 3 mps 753 mmHg 79%
11:00 +8°C° 0 mm 4 mps 753 mmHg 74%
12:00 +8°C° 0 mm 4 mps 753 mmHg 72%
13:00 +8°C° 0 mm 4 mps 752 mmHg 71%
14:00 +10°C° 0 mm 4 mps 752 mmHg 69%
15:00 +8°C° 0 mm 4 mps 752 mmHg 73%
16:00 +8°C° 0 mm 3 mps 752 mmHg 77%
17:00 +7°C° 0 mm 3 mps 752 mmHg 81%
18:00 +7°C° 0 mm 3 mps 752 mmHg 81%
19:00 +7°C° 0 mm 3 mps 752 mmHg 82%
20:00 +7°C° 0 mm 3 mps 752 mmHg 82%
21:00 +5°C° 0 mm 3 mps 752 mmHg 83%
22:00 +5°C° 0 mm 3 mps 753 mmHg 83%
23:00 +5°C° 0 mm 3 mps 753 mmHg 83%
Show more

We Need Your Consent

Meteoprog and our Service Providers may store and access personal data such as cookies, device identifiers or other similar technologies on your device and process such data to personalise content and ads, as well as provide social media features and to analyse the traffic.

  • Store and/or access information on your device

    Cookies, device identifiers or other information can be stored or accessed on your device for the purposes indicated above.

  • Personalised ads and content, ad and content measurement, audience insights, and products development

    Ads and content can be personalised based on a profile. More data can be added to better personalise ads and content. Ad and content performance can be measured. Insights about the audience who saw the ads and content can be derived. Such data can be used to develop or improve user’s experience, systems and software.

By clicking ‘I Agree’ you will allow the use of indicated cookies, device identifiers, web beacons or other similar technologies. Your settings can be changed in the browser on your device.

For certain purposes, legitimate interests may be relied on, rather than consent. You can read more about this in our Privacy and Cookie Policy.